Content
SEND FEEDBACK

Daily
Averages
Monthly
Summary
Philippines

TANQUE, PHILIPPINES


Home > Asia > Philippines
Elevation: 43 feet     Latitude: 14 34N     Longitude: 120 58E

WEATHER
 
SELECT A DAY
Number of Records: 172,693;   Date Range: 7/1/96 - 9/3/14
 
SHARE

PRINT THIS DATA

[ ← Previous Day ]
WEATHER ALMANAC - OCTOBER 8, 2013
[ Next Day → ]
[ °C ]   °F
We're sorry. There is no daily almanac available for Tanque, Philippines on October 8, 2013.
WEATHER BY HOUR - OCTOBER 8, 2013
[ °C ]   °F
Local TimeTemperatureDewpointHumidityBarometerVisibilityWind DirectionWind SpeedGust SpeedPrecipitationEventsConditions
1:00 AM80.6 °F73.4 °F79 %29.74 in6.2 miVariable2.3 mphPartly Cloudy
2:00 AM78.8 °F73.4 °F83 %29.74 in6.2 miCalmMostly Cloudy
3:00 AM78.8 °F75.2 °F89 %29.71 in6.2 miWSW (240°)1.2 mphMostly Cloudy
4:00 AM78.8 °F77.0 °F94 %29.71 in6.2 miCalmScattered Clouds
5:00 AM79.0 °F76.0 °F88 %29.75 in6.0 miEast (100°)2.2 mphHaze
5:00 AM78.8 °F77.0 °F94 %29.74 in5.6 miEast (100°)2.3 mphPartly Cloudy
6:00 AM0.0 °F77.0 °F29.74 in5.6 miVariable2.3 mphScattered Clouds
7:00 AM80.6 °F77.0 °F89 %29.77 in5.6 miVariable2.3 mphMostly Cloudy
8:00 AM82.4 °F77.0 °F84 %29.77 in5.6 miVariable3.5 mphMostly Cloudy
9:00 AM84.2 °F77.0 °F79 %29.77 in4.3 miVariable4.6 mphMostly Cloudy
10:00 AM84.2 °F77.0 °F79 %29.77 in5.0 miWest (270°)6.9 mphOvercast
11:00 AM84.0 °F78.0 °F76 %29.78 in5.0 miWest (270°)11.2 mphHaze
11:00 AM84.2 °F77.0 °F79 %29.77 in5.0 miWest (260°)10.4 mphOvercast
12:00 PM82.4 °F77.0 °F84 %29.74 in6.2 miWSW (250°)9.2 mphOvercast
1:00 PM82.4 °F77.0 °F84 %29.74 in6.2 miWSW (250°)10.4 mphOvercast
2:00 PM83.0 °F74.0 °F67 %29.73 in6.0 miWSW (240°)11.2 mphHaze
2:00 PM84.2 °F73.4 °F70 %29.71 in6.2 miWSW (250°)11.5 mphMostly Cloudy
3:00 PM84.2 °F75.2 °F74 %29.71 in5.6 miWSW (240°)10.4 mphMostly Cloudy
4:00 PM84.2 °F75.2 °F74 %29.71 in5.0 miWSW (250°)11.5 mphRainLight Rain Showers
5:00 PM83.0 °F74.0 °F67 %29.73 in5.0 miWSW (240°)8.9 mphRainLight Rain Showers
5:00 PM82.4 °F73.4 °F74 %29.71 in5.0 miWSW (240°)10.4 mphMostly Cloudy
6:00 PM82.4 °F73.4 °F74 %29.74 in5.6 miSW (220°)5.8 mphMostly Cloudy
7:00 PM82.4 °F75.2 °F79 %29.77 in5.6 miSW (220°)2.3 mphMostly Cloudy
8:00 PM82.0 °F75.0 °F74 %29.80 in5.0 miEast (90°)4.5 mphHaze
8:00 PM82.4 °F75.2 °F79 %29.80 in5.0 miEast (90°)2.3 mphMostly Cloudy
9:00 PM78.8 °F75.2 °F89 %29.80 in5.0 miNNE (30°)3.5 mphRainLight Rain Showers
10:00 PM80.6 °F75.2 °F84 %29.80 in5.0 miNNE (20°)4.6 mphOvercast
11:00 PM81.0 °F74.0 °F75 %29.82 in5.0 miNNW (330°)6.7 mphHaze
11:00 PM80.6 °F75.2 °F84 %29.80 in5.0 miNNW (330°)6.9 mphMostly Cloudy
Hourly data recorded from RPLL, located miles away from Tanque, Philippines







STORIES FROM OUR PARTNERS